When you browse on this site, cookies collect data to enhance your experience and personalize the content and advertising you see.
Visit our Privacy Policy to learn more. By continuing to use the site, you agree to this use of cookies and data.
  • In Sweden
  • List of Countries
  • For 7 days
  • Water Temperature
  • Weather Map
  • Weather Widgets
  • user-avatar
    Login

    Hourly Weather Agrate Brianza

    Today, 5 June, Friday

    Time Temperature Precipitation Wind Pressure Humidity
    00:00 +15°C° 1.6 mm 2 mps 733 mmHg 86%
    01:00 +14°C° 0 mm 3 mps 734 mmHg 85%
    02:00 +14°C° 0.2 mm 3 mps 733 mmHg 82%
    03:00 +15°C° 0.2 mm 2 mps 733 mmHg 80%
    04:00 +15°C° 0.2 mm 2 mps 733 mmHg 77%
    05:00 +15°C° 0 mm 2 mps 733 mmHg 76%
    06:00 +16°C° 0 mm 1 mps 733 mmHg 74%
    07:00 +16°C° 0 mm 1 mps 734 mmHg 72%
    08:00 +19°C° 0 mm 1 mps 734 mmHg 66%
    09:00 +21°C° 0 mm 1 mps 734 mmHg 59%
    10:00 +22°C° 0 mm 1 mps 734 mmHg 53%
    11:00 +24°C° 0 mm 2 mps 734 mmHg 49%
    12:00 +25°C° 0 mm 2 mps 734 mmHg 45%
    13:00 +25°C° 0 mm 2 mps 735 mmHg 44%
    14:00 +26°C° 0 mm 2 mps 735 mmHg 45%
    15:00 +26°C° 0 mm 3 mps 735 mmHg 45%
    16:00 +26°C° 0 mm 3 mps 736 mmHg 46%
    17:00 +26°C° 0 mm 2 mps 736 mmHg 50%
    18:00 +25°C° 0 mm 2 mps 736 mmHg 54%
    19:00 +24°C° 0 mm 2 mps 737 mmHg 58%
    20:00 +23°C° 0.1 mm 1 mps 738 mmHg 63%
    21:00 +21°C° 0.1 mm 1 mps 738 mmHg 68%
    22:00 +20°C° 0.1 mm 1 mps 739 mmHg 72%
    23:00 +20°C° 0.1 mm 1 mps 739 mmHg 73%

    Tomorrow, 6 June, Saturday

    Time Temperature Precipitation Wind Pressure Humidity
    00:00 +19°C° 0.1 mm 1 mps 740 mmHg 74%
    01:00 +19°C° 0.1 mm 1 mps 740 mmHg 76%
    02:00 +19°C° 0 mm 1 mps 740 mmHg 77%
    03:00 +18°C° 0 mm 1 mps 740 mmHg 79%
    04:00 +18°C° 0 mm 1 mps 740 mmHg 81%
    05:00 +18°C° 0.1 mm 1 mps 740 mmHg 80%
    06:00 +19°C° 0.1 mm 1 mps 740 mmHg 79%
    07:00 +19°C° 0.1 mm 2 mps 740 mmHg 78%
    08:00 +20°C° 0.3 mm 2 mps 741 mmHg 76%
    09:00 +21°C° 0.3 mm 2 mps 741 mmHg 73%
    10:00 +23°C° 0.3 mm 2 mps 741 mmHg 70%
    11:00 +24°C° 0.6 mm 2 mps 740 mmHg 65%
    12:00 +25°C° 0.6 mm 1 mps 740 mmHg 60%
    13:00 +26°C° 0.6 mm 1 mps 740 mmHg 55%
    14:00 +26°C° 0.3 mm 1 mps 740 mmHg 54%
    15:00 +27°C° 0.3 mm 1 mps 740 mmHg 54%
    16:00 +27°C° 0.3 mm 2 mps 739 mmHg 53%
    17:00 +26°C° 0.9 mm 1 mps 739 mmHg 59%
    18:00 +25°C° 0.9 mm 1 mps 739 mmHg 65%
    19:00 +23°C° 0.9 mm 1 mps 739 mmHg 70%
    20:00 +22°C° 1 mm 1 mps 740 mmHg 73%
    21:00 +21°C° 1 mm 1 mps 740 mmHg 76%
    22:00 +20°C° 1 mm 1 mps 741 mmHg 78%
    23:00 +20°C° 0.8 mm 1 mps 740 mmHg 80%

    Day after tomorrow, 7 June, Sunday

    Time Temperature Precipitation Wind Pressure Humidity
    00:00 +20°C° 0.8 mm 1 mps 740 mmHg 81%
    01:00 +19°C° 0.8 mm 1 mps 740 mmHg 82%
    02:00 +19°C° 0.5 mm 1 mps 740 mmHg 83%
    03:00 +19°C° 0.5 mm 1 mps 740 mmHg 84%
    04:00 +18°C° 0.5 mm 1 mps 740 mmHg 85%
    05:00 +19°C° 0.6 mm 1 mps 740 mmHg 84%
    06:00 +18°C° 0.6 mm 2 mps 740 mmHg 84%
    07:00 +18°C° 0.6 mm 2 mps 740 mmHg 83%
    08:00 +19°C° 1.2 mm 3 mps 739 mmHg 82%
    09:00 +20°C° 1.2 mm 3 mps 739 mmHg 81%
    10:00 +20°C° 1.2 mm 3 mps 739 mmHg 80%
    11:00 +20°C° 2.2 mm 3 mps 739 mmHg 82%
    12:00 +20°C° 2.2 mm 3 mps 740 mmHg 84%
    13:00 +19°C° 2.2 mm 2 mps 740 mmHg 86%
    14:00 +19°C° 3.1 mm 2 mps 740 mmHg 84%
    15:00 +20°C° 3.1 mm 2 mps 740 mmHg 82%
    16:00 +20°C° 3.1 mm 2 mps 740 mmHg 80%
    17:00 +19°C° 2 mm 2 mps 740 mmHg 80%
    18:00 +19°C° 2 mm 3 mps 740 mmHg 81%
    19:00 +18°C° 2 mm 3 mps 740 mmHg 81%
    20:00 +17°C° 0.8 mm 3 mps 740 mmHg 79%
    21:00 +17°C° 0.8 mm 2 mps 741 mmHg 78%
    22:00 +16°C° 0.8 mm 2 mps 741 mmHg 76%
    23:00 +16°C° 0.2 mm 2 mps 741 mmHg 76%

    8 June, Monday

    Time Temperature Precipitation Wind Pressure Humidity
    00:00 +16°C° 0.2 mm 1 mps 741 mmHg 76%
    01:00 +16°C° 0.2 mm 1 mps 741 mmHg 76%
    02:00 +16°C° 0.1 mm 1 mps 741 mmHg 75%
    03:00 +16°C° 0.1 mm 1 mps 741 mmHg 75%
    04:00 +16°C° 0.1 mm 1 mps 741 mmHg 75%
    05:00 +16°C° 0 mm 1 mps 741 mmHg 74%
    06:00 +16°C° 0 mm 0 mps 742 mmHg 72%
    07:00 +16°C° 0 mm 0 mps 742 mmHg 71%
    08:00 +17°C° 0 mm 0 mps 742 mmHg 69%
    09:00 +20°C° 0 mm 1 mps 742 mmHg 67%
    10:00 +21°C° 0 mm 1 mps 742 mmHg 65%
    11:00 +22°C° 0.1 mm 1 mps 742 mmHg 64%
    12:00 +21°C° 0.1 mm 0 mps 742 mmHg 63%
    13:00 +22°C° 0.1 mm 0 mps 742 mmHg 61%
    14:00 +24°C° 0.5 mm 1 mps 741 mmHg 59%
    15:00 +25°C° 0.5 mm 1 mps 741 mmHg 57%
    16:00 +25°C° 0.5 mm 1 mps 741 mmHg 55%
    17:00 +24°C° 0.4 mm 1 mps 741 mmHg 58%
    18:00 +23°C° 0.4 mm 1 mps 742 mmHg 62%
    19:00 +22°C° 0.4 mm 1 mps 742 mmHg 65%
    20:00 +22°C° 0.3 mm 1 mps 742 mmHg 66%
    21:00 +21°C° 0.3 mm 1 mps 743 mmHg 67%
    22:00 +20°C° 0.3 mm 1 mps 743 mmHg 67%
    23:00 +20°C° 0.1 mm 1 mps 743 mmHg 70%

    9 June, Tuesday

    Time Temperature Precipitation Wind Pressure Humidity
    00:00 +19°C° 0.1 mm 1 mps 743 mmHg 73%
    01:00 +19°C° 0.1 mm 1 mps 743 mmHg 76%
    02:00 +18°C° 0.2 mm 1 mps 743 mmHg 77%
    03:00 +18°C° 0.2 mm 1 mps 743 mmHg 78%
    04:00 +18°C° 0.2 mm 1 mps 743 mmHg 80%
    05:00 +18°C° 0.1 mm 1 mps 743 mmHg 78%
    06:00 +19°C° 0.1 mm 1 mps 743 mmHg 77%
    07:00 +19°C° 0.1 mm 1 mps 743 mmHg 76%
    08:00 +20°C° 0.5 mm 1 mps 743 mmHg 72%
    09:00 +22°C° 0.5 mm 1 mps 743 mmHg 69%
    10:00 +23°C° 0.5 mm 2 mps 743 mmHg 65%
    11:00 +23°C° 0.9 mm 2 mps 743 mmHg 65%
    12:00 +23°C° 0.9 mm 2 mps 743 mmHg 64%
    13:00 +22°C° 0.9 mm 3 mps 743 mmHg 64%
    14:00 +24°C° 1 mm 3 mps 743 mmHg 63%
    15:00 +24°C° 1 mm 3 mps 743 mmHg 63%
    16:00 +24°C° 1 mm 3 mps 742 mmHg 62%
    17:00 +22°C° 0.7 mm 3 mps 743 mmHg 66%
    18:00 +21°C° 0.7 mm 2 mps 743 mmHg 71%
    19:00 +20°C° 0.7 mm 2 mps 743 mmHg 75%
    20:00 +19°C° 0.7 mm 2 mps 743 mmHg 77%
    21:00 +19°C° 0.7 mm 2 mps 743 mmHg 78%
    22:00 +19°C° 0.7 mm 1 mps 744 mmHg 79%
    23:00 +19°C° 0.8 mm 1 mps 744 mmHg 80%

    10 June, Wednesday

    Time Temperature Precipitation Wind Pressure Humidity
    00:00 +18°C° 0.8 mm 1 mps 744 mmHg 81%
    01:00 +18°C° 0.8 mm 1 mps 744 mmHg 82%
    02:00 +18°C° 0.6 mm 1 mps 744 mmHg 82%
    03:00 +16°C° 0.6 mm 1 mps 744 mmHg 83%
    04:00 +16°C° 0.6 mm 1 mps 743 mmHg 83%
    05:00 +18°C° 0.1 mm 1 mps 744 mmHg 82%
    06:00 +18°C° 0.1 mm 1 mps 744 mmHg 80%
    07:00 +19°C° 0.1 mm 1 mps 744 mmHg 78%
    08:00 +20°C° 0.3 mm 1 mps 744 mmHg 73%
    09:00 +21°C° 0.3 mm 1 mps 744 mmHg 69%
    10:00 +23°C° 0.3 mm 1 mps 744 mmHg 64%
    11:00 +24°C° 0.3 mm 1 mps 744 mmHg 61%
    12:00 +24°C° 0.3 mm 1 mps 743 mmHg 58%
    13:00 +25°C° 0.3 mm 2 mps 743 mmHg 54%
    14:00 +25°C° 0.3 mm 2 mps 743 mmHg 55%
    15:00 +25°C° 0.3 mm 2 mps 743 mmHg 57%
    16:00 +24°C° 0.3 mm 2 mps 743 mmHg 58%
    17:00 +24°C° 0.6 mm 2 mps 744 mmHg 61%
    18:00 +23°C° 0.6 mm 2 mps 744 mmHg 65%
    19:00 +21°C° 0.6 mm 2 mps 744 mmHg 68%
    20:00 +20°C° 0.2 mm 2 mps 745 mmHg 68%
    21:00 +19°C° 0.2 mm 2 mps 745 mmHg 69%
    22:00 +19°C° 0.2 mm 2 mps 745 mmHg 69%
    23:00 +18°C° 0.2 mm 2 mps 745 mmHg 70%
    Show more